This is the latest recevied weather packets stored in our database for station/object IQ0OG-3. If no packets are shown the sender has not sent any weather packets the latest 10 day(s).
| Time | Temp. | Humidity | Pressure | Rain* | Wind** | Luminosity | Snow |
|---|---|---|---|---|---|---|---|
| 1777651199 | 15.56° C | 59% | 1020.1 hPa | 0 mm | - | - | - |
| 1777649399 | 16.11° C | 60% | 1020 hPa | 0 mm | - | - | - |
| 1777643398 | 17.78° C | 62% | 1019.9 hPa | 0 mm | - | - | - |
| 1777634398 | 18.89° C | 60% | 1020.3 hPa | 0 mm | - | - | - |
| 1777633199 | 18.33° C | 60% | 1020.4 hPa | 0 mm | - | - | - |
| 1777631998 | 18.89° C | 60% | 1020.4 hPa | 0 mm | - | - | - |
| 1777621198 | 16.11° C | 54% | 1019.3 hPa | 0 mm | - | - | - |
| 1777616398 | 16.67° C | 52% | 1018.8 hPa | 0 mm | - | - | - |
| 1777615797 | 15.56° C | 54% | 1018.9 hPa | 0 mm | - | - | - |
| 1777613998 | 15.56° C | 56% | 1019 hPa | 0 mm | - | - | - |
| 1777613397 | 15° C | 62% | 1019 hPa | 0 mm | - | - | - |
| 1777612798 | 14.44° C | 66% | 1019 hPa | 0 mm | - | - | - |
| 1777607397 | 13.33° C | 73% | 1018.1 hPa | 0 mm | - | - | - |
| 1777604998 | 12.78° C | 72% | 1017.6 hPa | 0 mm | - | - | - |
| 1777601397 | 12.78° C | 72% | 1017.6 hPa | 0 mm | - | - | - |
| 1777595997 | 13.33° C | 79% | 1017.9 hPa | 0 mm | - | - | - |
| 1777588797 | 13.89° C | 94% | 1017.9 hPa | 0 mm | - | - | - |
| 1777583996 | 14.44° C | 95% | 1018.2 hPa | 0 mm | - | - | - |
| 1777581596 | 14.44° C | 95% | 1018 hPa | 0 mm | - | - | - |
| 1777574996 | 15° C | 91% | 1017 hPa | 0 mm | - | - | - |
| 1777572596 | 15° C | 89% | 1016.5 hPa | 0 mm | - | - | - |
| 1777562395 | 16.67° C | 85% | 1016.2 hPa | 0 mm | - | - | - |
| 1777559995 | 16.67° C | 83% | 1016.3 hPa | 0 mm | - | - | - |
| 1777558195 | 17.78° C | 80% | 1016.1 hPa | 0 mm | - | - | - |
| 1777554595 | 17.78° C | 78% | 1016.2 hPa | 0 mm | - | - | - |
* Rain latest hour (hover to see other rain measurements)
** Current wind speed in m/s (hover to see current wind gust speed)